Weather History for Lincoln, NE

Change the Weather History Date:

Monday, July 22, 2013

  Actual Average Record
Temperature  
Mean Temperature 82 °F 78 °F  
Max Temperature 97 °F 89 °F 105 °F (1964)
Min Temperature 67 °F 66 °F 53 °F (1947)
Degree Days  
Heating Degree Days 0 0  
Month to date heating degree days 0 0  
Since 1 June heating degree days 20 16  
Since 1 July heating degree days 0 0  
Cooling Degree Days 17 13  
Month to date cooling degree days 301 279  
Year to date cooling degree days 619 600  
Since 1 June cooling degree days 532 521  
Growing Degree Days 32 (Base 50)    
Moisture  
Dew Point 67 °F    
Average Humidity 64    
Maximum Humidity 93    
Minimum Humidity 35    
Precipitation  
Precipitation 0.00 in 0.10 in 1.47 in (1971)
Month to date precipitation T 2.48  
Year to date precipitation 18.34 17.17  
Snow  
Snow 0.00 in 0.00 in - ()
Month to date snowfall 0.0 0.0  
Since 1 July snowfall 0.0 0.0  
Snow Depth 0.00 in    
Sea Level Pressure  
Sea Level Pressure 29.77 in    
Wind  
Wind Speed 7 mph (South)    
Max Wind Speed 17 mph    
Max Gust Speed 41 mph    
Visibility 10 miles    
Events      
T = Trace of Precipitation, MM = Missing Value Source: NWS Daily Summary

Daily Weather History Graph

Daily Weather History Graph

Search for Another Location

Airport:

Trip Planner

Search our weather history database for the weather conditions in past years. The results will help you decide how hot, cold, wet, or windy it might be!

Date:

Astronomy

Jul. 22, 2013 Rise Set
Actual Time 6:14 AM CDT 8:52 PM CDT
Civil Twilight 5:42 AM CDT 9:23 PM CDT
Nautical Twilight 5:02 AM CDT 10:03 PM CDT
Astronomical Twilight 4:17 AM CDT 10:48 PM CDT
Moon 8:38 PM CDT (7/22) 6:12 AM CDT (7/22)
Length of Visible Light 15h 41m
Length of Day
14h 37m
Full, 100% of the Moon is Illuminated
Jul 22
Full
Jul 22
Full
Jul 29
Last Quarter
Aug 6
New
Aug 14
First Quarter

Hourly Weather History & Observations

Time (CDT) Temp. Heat Index Dew Point Humidity Pressure Visibility Wind Dir Wind Speed Gust Speed Precip Events Conditions
12:54 AM 72.0 °F - 66.9 °F 84% 29.81 in 10.0 mi SSE 5.8 mph - N/A   Clear
1:54 AM 72.0 °F - 66.9 °F 84% 29.79 in 10.0 mi South 5.8 mph - N/A   Clear
2:54 AM 71.1 °F - 66.9 °F 87% 29.79 in 10.0 mi SSE 3.5 mph - N/A   Clear
3:54 AM 71.1 °F - 66.0 °F 84% 29.78 in 10.0 mi South 3.5 mph - N/A   Clear
4:54 AM 69.1 °F - 66.0 °F 90% 29.77 in 10.0 mi SSW 3.5 mph - N/A   Clear
5:54 AM 69.1 °F - 66.0 °F 90% 29.76 in 10.0 mi Calm Calm - N/A   Clear
6:54 AM 68.0 °F - 66.0 °F 93% 29.76 in 6.0 mi South 4.6 mph - N/A   Clear
7:54 AM 72.0 °F - 68.0 °F 87% 29.79 in 8.0 mi SE 3.5 mph - N/A   Clear
8:54 AM 77.0 °F - 70.0 °F 79% 29.79 in 10.0 mi SSW 6.9 mph - N/A   Clear
9:54 AM 81.0 °F 84.9 °F 71.1 °F 72% 29.77 in 10.0 mi South 8.1 mph - N/A   Clear
10:54 AM 86.0 °F 91.5 °F 71.1 °F 61% 29.76 in 10.0 mi South 6.9 mph - N/A   Clear
11:54 AM 89.1 °F 96.0 °F 72.0 °F 57% 29.75 in 10.0 mi South 6.9 mph - N/A   Clear
12:54 PM 91.9 °F 96.9 °F 69.1 °F 47% 29.75 in 10.0 mi Calm Calm - N/A   Clear
1:54 PM 95.0 °F 99.5 °F 68.0 °F 41% 29.75 in 10.0 mi WSW 6.9 mph - N/A   Clear
2:54 PM 97.0 °F 99.3 °F 64.0 °F 34% 29.75 in 10.0 mi South 11.5 mph - N/A   Clear
3:54 PM 96.1 °F 101.0 °F 68.0 °F 40% 29.75 in 10.0 mi South 13.8 mph 18.4 mph N/A   Clear
4:54 PM 96.1 °F 99.3 °F 66.0 °F 37% 29.74 in 10.0 mi South 9.2 mph - N/A   Partly Cloudy
5:54 PM 96.1 °F 98.3 °F 64.0 °F 35% 29.73 in 10.0 mi SSW 11.5 mph - N/A   Clear
6:54 PM 93.0 °F 94.2 °F 63.0 °F 37% 29.73 in 10.0 mi SSW 8.1 mph - N/A   Clear
7:54 PM 91.9 °F 93.3 °F 64.0 °F 39% 29.74 in 10.0 mi WSW 4.6 mph - N/A   Clear
8:54 PM 89.1 °F 92.1 °F 66.9 °F 48% 29.75 in 10.0 mi NNW 5.8 mph - N/A   Clear
9:54 PM 81.0 °F 83.0 °F 66.0 °F 60% 29.78 in 10.0 mi North 15.0 mph - N/A   Clear
10:54 PM 79.0 °F - 63.0 °F 58% 29.81 in 10.0 mi North 12.7 mph - N/A   Clear
11:54 PM 77.0 °F - 61.0 °F 58% 29.83 in 10.0 mi NE 13.8 mph - N/A   Clear